Regional Weather Roundup
Issued by NWS

Home | Current Version | Previous Version | Text Only | Print | Product List | Glossary On
Versions: 1 2 3 4 5 6 7 8 9 10 11 12 13 14 15 16 17 18 19 20 21 22 23 24 25 26 27 28 29 30 31 32 33 34 35 36 37 38 39 40 41 42 43 44 45 46 47 48 49 50
000
ASUS43 KLSX 301957
RWRMO

WEATHER SUMMARY FOR MISSOURI
NATIONAL WEATHER SERVICE SPRINGFIELD MO
300 PM CDT THU MAR 30 2017

NOTE: "FAIR" INDICATES FEW OR NO CLOUDS BELOW 12,000 FEET WITH NO
       SIGNIFICANT WEATHER AND/OR OBSTRUCTIONS TO VISIBILITY.
       CURRENT SKY AND/OR WEATHER CONDITIONS ARE NOT AVAILABLE FOR
       CHILLICOTHE AND FARMINGTON.

MOZ001>031-035>038-043-044-053-054-302100-
...NORTHERN AND WESTERN MISSOURI...

CITY           SKY/WX    TMP DP  RH WIND       PRES   REMARKS
KANSAS CTY INT DRIZZLE   49  47  93 N10       29.59R
LEE`S SUMMIT   CLOUDY    52  46  80 N6        29.58S
ST JOSEPH      CLOUDY    47  46  97 N15       29.62R
CHILLICOTHE      N/A     49  47  93 N6        29.59S

$$
MOZ066>068-077>081-088>096-101>105-302100-
...SOUTHWEST MISSOURI...

CITY           SKY/WX    TMP DP  RH WIND       PRES   REMARKS
SPRINGFIELD    LGT RAIN  47  44  90 SW13      29.62R FOG
JOPLIN         LGT RAIN  48  47  96 W17       29.63R FOG
BRANSON        LGT RAIN  46  45  93 SW13G18   29.66S FOG

$$
MOZ032>034-039>042-045>050-055>058-069>072-302100-
...CENTRAL MISSOURI...

CITY           SKY/WX    TMP DP  RH WIND       PRES   REMARKS
COLUMBIA       NOT AVBL
JEFFERSON CITY CLOUDY    57  42  57 SW10      29.58R
ROLLA          CLOUDY    53  44  71 W15       29.57S
SEDALIA        CLOUDY    52  47  83 SW6       29.59R
WARRENSBURG    CLOUDY    50  46  87 S5        29.58S

$$
MOZ051-052-059>065-302100-
...EAST CENTRAL MISSOURI...

CITY           SKY/WX    TMP DP  RH WIND       PRES   REMARKS
ST LOUIS INTL  CLOUDY    62  55  77 NW14      29.53S
SPIRIT OF STL  CLOUDY    61  55  81 W10       29.54S
ST CHARLES     CLOUDY    59  55  88 NW12      29.53R

$$
MOZ072>076-082>087-097>100-106>115-302100-
...SOUTH CENTRAL AND SOUTHEAST MISSOURI...

CITY           SKY/WX    TMP DP  RH WIND       PRES   REMARKS
CAPE GIRARDEAU PTSUNNY   69  58  67 SW22G30   29.54F
POPLAR BLUFF   SUNNY     67  52  58 SW24G36   29.55S
WEST PLAINS    CLOUDY    53  41  63 W20G25    29.62S

$$


USA.gov is the U.S. government's official web portal to all federal, state and local government web resources and services.